Terminal Aerodrome Forecast
Issued by NWS Norman, OK

Home | Current Version | Previous Version | Text Only | Print | Product List | Glossary On
Versions: 1 2 3 4 5 6 7 8 9 10 11 12
000
FTUS44 KOUN 280533
TAFSPS
TAF
KSPS 280533Z 2806/0106 18011KT P6SM BKN150
     FM281500 21016G22KT P6SM BKN150=

USA.gov is the U.S. government's official web portal to all federal, state and local government web resources and services.